Location: Pebble Beach Sunset Acres
(33.0837°N, 96.4508°W)
Time: 14:12:41
(UTC+00:00)

SL-4 R/B - Pass Details

Date: 08 December 2021
Orbit: 427 x 660 km, 51.6° (Epoch: 29 January)

Event Time Altitude Azimuth Distance (km) Brightness Sun altitude
Exits shadow 12:27:51 14° 273° (W) 1,342 3.4 -10.2°
Maximum altitude 12:30:11 26° 325° (NW) 926 2.7 -9.8°
Drops below altitude 10° 12:33:16 10° 23° (NNE) 1,620 4.5 -9.2°
Sets 12:35:45 0° 37° (NE) 2,541 5.6 -8.7°
